This demonstration page uses our WeatherBlox Daily Observations layout. Learn more.

Left ArrowRight Arrow

34.02893, -84.19858

Hourly Observations for October 16, 2015

Temp ( °F °C ) Dew Point ( °F °C ) Humidity (%) Winds ( mph kmh ) Pressure ( in mb ) Visibility ( mi km ) Precip ( " mm )
12:53 am 00:53 Clear 55 12.8 54 12.2 96 96 Calm 30.12 1020 10 16 0.00 0.00
1:53 am 01:53 Clear 56 13.3 54 12.2 93 93 Calm 30.11 1020 10 16 0.00 0.00
2:53 am 02:53 Clear 54 12.2 54 12.2 100 100 Calm 30.10 1019 10 16 0.00 0.00
3:53 am 03:53 Clear 54 12.2 53 11.7 97 97 Calm 30.10 1019 10 16 0.00 0.00
4:53 am 04:53 Clear 54 12.2 53 11.7 97 97 Calm 30.09 1019 10 16 0.00 0.00
5:53 am 05:53 Clear 52 11.1 52 11.1 100 100 Calm 30.09 1019 10 16 0.00 0.00
6:53 am 06:53 Clear 53 11.7 53 11.7 100 100 Calm 30.11 1020 10 16 0.00 0.00
7:53 am 07:53 Sunny 54 12.2 53 11.7 97 97 Calm 30.11 1020 10 16 0.00 0.00
8:53 am 08:53 Sunny 59 15 56 13.3 90 90 S 3 6 30.12 1020 10 16 0.00 0.00
9:53 am 09:53 Sunny 66 18.9 56 13.3 70 70 WSW 5 7 30.13 1020 10 16 0.00 0.00
10:53 am 10:53 Sunny 71 21.7 56 13.3 59 59 WNW 12 19 30.13 1020 10 16 0.00 0.00
11:53 am 11:53 Sunny 74 23.3 55 12.8 52 52 WNW 9 15 30.12 1020 10 16 0.00 0.00
12:53 pm 12:53 Sunny 76 24.4 54 12.2 47 47 NNW 12 19 30.12 1020 10 16 0.00 0.00
1:53 pm 13:53 Sunny 75 23.9 50 10 41 41 WNW 14 22 30.12 1020 10 16 0.00 0.00
2:53 pm 14:53 Sunny 74 23.3 48 8.9 40 40 WNW 14 22 30.11 1020 10 16 0.00 0.00
3:53 pm 15:53 Sunny 75 23.9 43 6.1 32 32 NW 18 30 30.11 1020 10 16 0.00 0.00
4:53 pm 16:53 Sunny 73 22.8 36 2.2 26 26 NW 15 24 30.11 1020 10 16 0.00 0.00
5:53 pm 17:53 Sunny 71 21.7 38 3.3 30 30 NNW 10 17 30.12 1020 10 16 0.00 0.00
6:53 pm 18:53 Sunny 67 19.4 39 3.9 36 36 NNW 8 13 30.14 1021 10 16 0.00 0.00
7:53 pm 19:53 Clear 64 17.8 35 1.7 34 34 NNW 7 11 30.16 1021 10 16 0.00 0.00
8:53 pm 20:53 Clear 62 16.7 36 2.2 38 38 NW 8 13 30.17 1022 10 16 0.00 0.00
9:53 pm 21:53 Clear 58 14.4 36 2.2 44 44 NNW 9 15 30.18 1022 10 16 0.00 0.00
10:53 pm 22:53 Clear 57 13.9 35 1.7 44 44 NNW 10 17 30.18 1022 10 16 0.00 0.00
11:53 pm 23:53 Clear 57 13.9 34 1.1 42 42 NNW 13 20 30.18 1022 10 16 0.00 0.00

Powered by AerisWeather